Regional Weather Roundup
Issued by NWS Kansas City/Pleasant Hill, MO

Home | Current Version | Previous Version | Graphics & Text | Print | Product List | Glossary Off
Versions: 1 2 3 4 5 6 7 8 9 10 11 12 13 14 15 16 17 18 19 20 21 22 23 24 25 26 27 28 29 30 31 32 33 34 35 36 37 38 39 40 41 42 43 44 45 46 47 48 49 50

000
ASUS43 KEAX 250711
RWREAX

WEATHER ROUNDUP FOR EASTERN KANSAS AND NORTHWEST MISSOURI
NATIONAL WEATHER SERVICE KANSAS CITY/PLEASANT HILL MO
100 AM CST THU DEC 25 2014

KSZ040-057-103>105-MOZ028-029-037-043-250800-
...KANSAS CITY METROPOLITAN AREA...

CITY           SKY/WX    TMP DP  RH WIND       PRES   REMARKS
K.C. INTL      CLEAR     31  29  92 S13       29.79S WCI  21
K.C. DOWNTOWN  CLEAR     33  28  81 S9        29.82R WCI  25
LEES SUMMIT    CLEAR     31  27  85 S9        29.83R WCI  23
OLATHE - IXD   CLEAR     29  27  92 S9        29.81S WCI  20
OLATHE - OJC   CLEAR     31  28  89 S9        29.81R WCI  23
LAWRENCE       CLEAR     29  26  89 SE7       29.81S WCI  22

$$

MOZ001>008-011>017-020>025-030>033-038>040-044>046-053-054-250800-
...NORTHERN AND CENTRAL MISSOURI...

CITY           SKY/WX    TMP DP  RH WIND       PRES   REMARKS
ST. JOSEPH     CLEAR     30  27  88 S10       29.78F WCI  21
MOSBY            N/A     32  30  93 SE5       29.82S WCI  27
WARRENSBURG    CLEAR     32  28  86 S9        29.85S WCI  24
WHITEMAN AFB   CLEAR     29  27  92 S8        29.85S WCI  22
CLINTON        CLEAR     34  32  93 S7        29.87S WCI  28
SEDALIA        CLEAR     33  29  85 S10       29.86S WCI  25
WARSAW         NOT AVBL
MARSHALL       CLEAR     34  32  93 SW6       29.86S WCI  29
CHILLICOTHE      N/A     31  27  85 S6        29.83R WCI  25
MOBERLY        CLOUDY    36  28  75 SW13      29.85S WCI  27
KIRKSVILLE     CLOUDY    33  29  85 SW9       29.81S WCI  25

$$

MOZ041-047>049-056>058-063>065-088>090-097-250800-
...EASTERN AND SOUTHERN MISSOURI...

CITY           SKY/WX    TMP DP  RH WIND       PRES   REMARKS
ST. LOUIS INTL CLOUDY    38  34  85 SW7       29.88R WCI  33
SPIRIT OF STL  CLOUDY    38  32  79 W10       29.88R WCI  31
COLUMBIA       MOCLDY    34  29  82 SW10      29.87R WCI  26
JEFFERSON CITY PTCLDY    36  28  73 SW7       29.89S WCI  30
MEXICO         CLOUDY    36  34  93 SW17      29.86R WCI  25
HANNIBAL       CLOUDY    37  28  70 W10       29.85R WCI  30
ROLLA          CLOUDY    34  28  79 W13       29.86S WCI  25
LEBANON        CLEAR     32  28  86 S6        29.89R WCI  26
OSAGE BEACH    CLEAR     32  27  80 S5        29.89R WCI  27
SPRINGFIELD    CLEAR     31  27  85 S10       29.89S WCI  22
NEVADA         CLEAR     30  28  93 S9        29.87S WCI  22
JOPLIN         CLEAR     32  29  88 S12       29.89F WCI  23
WEST PLAINS    PTCLDY    33  27  78 W6        29.92F WCI  28

$$

IAZ060-094-KSZ022-034>040-054-083-096-NEZ052-066-093-250800-
...KANSAS...SOUTHEAST NEBRASKA AND IOWA...

CITY           SKY/WX    TMP DP  RH WIND       PRES   REMARKS
TOPEKA         CLEAR     34  29  82 S12       29.76F WCI  25
MANHATTAN      PTCLDY    28  24  85 CALM      29.73F
EMPORIA        CLEAR     28  25  88 S14       29.77F WCI  17
CHANUTE        CLEAR     31  28  89 S9        29.85S WCI  23
WICHITA        PTCLDY    33  24  69 S15       29.76F WCI  23
OMAHA          PTCLDY    30  27  88 S12       29.67F WCI  20
LINCOLN        PTCLDY    30  25  81 S10       29.64F WCI  21
FALLS CITY     CLEAR     30  27  88 S15       29.72F WCI  19
LAMONI         PTCLDY    30  28  92 S12       29.75F WCI  20
DES MOINES     CLOUDY    32  27  81 SW9       29.74S WCI  24

$$



USA.gov is the U.S. government's official web portal to all federal, state and local government web resources and services.